Time,TemperatureF,DewpointF,PressureIn,WindDirection,WindDirectionDegrees,WindSpeedMPH,WindSpeedGustMPH,Humidity,HourlyPrecipIn,Conditions,Clouds,dailyrainin,SoftwareType,DateUTC
2013-04-21 00:03:00,60.0,-99.9,30.15,NE,52,11.0,16.0,-999,-99.99,,,-99.99,,2013-04-21 04:03:00,
2013-04-21 00:13:00,60.0,-99.9,30.15,NE,47,12.0,17.0,-999,-99.99,,,-99.99,,2013-04-21 04:13:00,
2013-04-21 00:23:00,61.0,-99.9,30.14,ENE,58,10.0,16.0,-999,-99.99,,,-99.99,,2013-04-21 04:23:00,
2013-04-21 00:33:00,61.0,-99.9,30.14,ENE,68,9.0,16.0,-999,-99.99,,,-99.99,,2013-04-21 04:33:00,
2013-04-21 00:43:00,61.0,-99.9,30.14,ENE,76,12.0,17.0,-999,-99.99,,,-99.99,,2013-04-21 04:43:00,
2013-04-21 00:53:00,60.0,-99.9,30.14,ENE,57,12.0,16.0,-999,-99.99,,,-99.99,,2013-04-21 04:53:00,
2013-04-21 01:02:00,61.0,-99.9,30.14,ENE,58,9.0,14.0,-999,-99.99,,,-99.99,,2013-04-21 05:02:00,
2013-04-21 01:12:00,60.0,-99.9,30.14,ENE,57,11.0,14.0,-999,-99.99,,,-99.99,,2013-04-21 05:12:00,
2013-04-21 01:22:00,60.0,-99.9,30.14,NE,55,9.0,12.0,-999,-99.99,,,-99.99,,2013-04-21 05:22:00,
2013-04-21 01:32:00,61.0,-99.9,30.14,ENE,64,10.0,12.0,-999,-99.99,,,-99.99,,2013-04-21 05:32:00,
2013-04-21 01:43:00,61.0,-99.9,30.14,ENE,64,13.0,18.0,-999,-99.99,,,-99.99,,2013-04-21 05:43:00,
2013-04-21 01:52:00,61.0,-99.9,30.12,ENE,61,11.0,18.0,-999,-99.99,,,-99.99,,2013-04-21 05:52:00,
2013-04-21 02:01:00,61.0,-99.9,30.12,ENE,65,10.0,17.0,-999,-99.99,,,-99.99,,2013-04-21 06:01:00,
2013-04-21 02:12:00,61.0,-99.9,30.11,ENE,61,11.0,15.0,-999,-99.99,,,-99.99,,2013-04-21 06:12:00,
2013-04-21 02:22:00,61.0,-99.9,30.11,NE,54,12.0,17.0,-999,-99.99,,,-99.99,,2013-04-21 06:22:00,
2013-04-21 02:32:00,61.0,-99.9,30.11,ENE,64,9.0,14.0,-999,-99.99,,,-99.99,,2013-04-21 06:32:00,
2013-04-21 02:42:00,61.0,-99.9,30.11,ENE,68,9.0,13.0,-999,-99.99,,,-99.99,,2013-04-21 06:42:00,
2013-04-21 02:52:00,62.0,-99.9,30.10,ENE,71,10.0,13.0,-999,-99.99,,,-99.99,,2013-04-21 06:52:00,
2013-04-21 03:02:00,62.0,-99.9,30.10,NE,52,9.0,15.0,-999,-99.99,,,-99.99,,2013-04-21 07:02:00,
2013-04-21 03:12:00,62.0,-99.9,30.10,NE,37,6.0,12.0,-999,-99.99,,,-99.99,,2013-04-21 07:12:00,
2013-04-21 03:22:00,61.0,-99.9,30.09,NE,51,9.0,12.0,-999,-99.99,,,-99.99,,2013-04-21 07:22:00,
2013-04-21 03:32:00,62.0,-99.9,30.09,NE,50,9.0,14.0,-999,-99.99,,,-99.99,,2013-04-21 07:32:00,
2013-04-21 03:42:00,62.0,-99.9,30.09,ENE,57,9.0,13.0,-999,-99.99,,,-99.99,,2013-04-21 07:42:00,
2013-04-21 03:52:00,62.0,-99.9,30.09,ENE,58,8.0,16.0,-999,-99.99,,,-99.99,,2013-04-21 07:52:00,
2013-04-21 04:02:00,62.0,-99.9,30.09,ENE,58,11.0,13.0,-999,-99.99,,,-99.99,,2013-04-21 08:02:00,
2013-04-21 04:12:00,62.0,-99.9,30.09,NE,55,11.0,15.0,-999,-99.99,,,-99.99,,2013-04-21 08:12:00,
2013-04-21 04:22:00,62.0,-99.9,30.08,ENE,57,11.0,16.0,-999,-99.99,,,-99.99,,2013-04-21 08:22:00,
2013-04-21 04:32:00,62.0,-99.9,30.07,NE,50,11.0,17.0,-999,-99.99,,,-99.99,,2013-04-21 08:32:00,
2013-04-21 04:42:00,62.0,-99.9,30.07,ENE,61,8.0,15.0,-999,-99.99,,,-99.99,,2013-04-21 08:42:00,
2013-04-21 04:52:00,62.0,-99.9,30.08,ENE,60,11.0,14.0,-999,-99.99,,,-99.99,,2013-04-21 08:52:00,
2013-04-21 05:02:00,62.0,-99.9,30.08,ENE,70,10.0,14.0,-999,-99.99,,,-99.99,,2013-04-21 09:02:00,
2013-04-21 05:12:00,62.0,-99.9,30.08,ENE,64,6.0,12.0,-999,-99.99,,,-99.99,,2013-04-21 09:12:00,
2013-04-21 05:22:00,62.0,-99.9,30.09,ENE,59,9.0,11.0,-999,-99.99,,,-99.99,,2013-04-21 09:22:00,
2013-04-21 05:33:00,62.0,-99.9,30.08,East,81,10.0,13.0,-999,-99.99,,,-99.99,,2013-04-21 09:33:00,
2013-04-21 05:43:00,62.0,-99.9,30.08,ENE,75,8.0,11.0,-999,-99.99,,,-99.99,,2013-04-21 09:43:00,
2013-04-21 05:53:00,62.0,-99.9,30.09,ENE,72,10.0,13.0,-999,-99.99,,,-99.99,,2013-04-21 09:53:00,
2013-04-21 06:03:00,62.0,-99.9,30.08,ENE,66,8.0,15.0,-999,-99.99,,,-99.99,,2013-04-21 10:03:00,
2013-04-21 06:12:00,62.0,-99.9,30.08,ENE,62,8.0,14.0,-999,-99.99,,,-99.99,,2013-04-21 10:12:00,
2013-04-21 06:22:00,62.0,-99.9,30.08,ENE,58,11.0,16.0,-999,-99.99,,,-99.99,,2013-04-21 10:22:00,
2013-04-21 06:33:00,62.0,-99.9,30.08,ENE,57,12.0,17.0,-999,-99.99,,,-99.99,,2013-04-21 10:33:00,
2013-04-21 06:42:00,62.0,-99.9,30.08,ENE,68,11.0,16.0,-999,-99.99,,,-99.99,,2013-04-21 10:42:00,
2013-04-21 06:52:00,62.0,-99.9,30.08,ENE,75,12.0,17.0,-999,-99.99,,,-99.99,,2013-04-21 10:52:00,
2013-04-21 07:03:00,62.0,-99.9,30.08,East,84,13.0,17.0,-999,-99.99,,,-99.99,,2013-04-21 11:03:00,
2013-04-21 07:12:00,63.0,-99.9,30.08,East,79,11.0,16.0,-999,-99.99,,,-99.99,,2013-04-21 11:12:00,
2013-04-21 07:22:00,63.0,-99.9,30.09,East,84,10.0,14.0,-999,-99.99,,,-99.99,,2013-04-21 11:22:00,
2013-04-21 07:34:00,63.0,-99.9,30.10,ENE,77,11.0,14.0,-999,-99.99,,,-99.99,,2013-04-21 11:34:00,
2013-04-21 07:42:00,63.0,-99.9,30.10,ENE,74,9.0,13.0,-999,-99.99,,,-99.99,,2013-04-21 11:42:00,
2013-04-21 07:52:00,63.0,-99.9,30.10,East,79,9.0,12.0,-999,-99.99,,,-99.99,,2013-04-21 11:52:00,
2013-04-21 08:03:00,63.0,-99.9,30.11,ENE,71,8.0,11.0,-999,-99.99,,,-99.99,,2013-04-21 12:03:00,
2013-04-21 08:12:00,63.0,-99.9,30.11,ENE,70,9.0,13.0,-999,-99.99,,,-99.99,,2013-04-21 12:12:00,
2013-04-21 08:22:00,63.0,-99.9,30.11,East,84,9.0,13.0,-999,-99.99,,,-99.99,,2013-04-21 12:22:00,
2013-04-21 08:32:00,64.0,-99.9,30.11,East,82,10.0,12.0,-999,-99.99,,,-99.99,,2013-04-21 12:32:00,
2013-04-21 08:42:00,64.0,-99.9,30.11,East,80,9.0,14.0,-999,-99.99,,,-99.99,,2013-04-21 12:42:00,
2013-04-21 08:52:00,64.0,-99.9,30.11,East,80,13.0,16.0,-999,-99.99,,,-99.99,,2013-04-21 12:52:00,
2013-04-21 09:02:00,64.0,-99.9,30.11,East,79,9.0,13.0,-999,-99.99,,,-99.99,,2013-04-21 13:02:00,
2013-04-21 09:12:00,64.0,-99.9,30.11,ENE,76,11.0,15.0,-999,-99.99,,,-99.99,,2013-04-21 13:12:00,
2013-04-21 09:22:00,65.0,-99.9,30.11,East,79,10.0,15.0,-999,-99.99,,,-99.99,,2013-04-21 13:22:00,
2013-04-21 09:32:00,65.0,-99.9,30.11,East,85,12.0,14.0,-999,-99.99,,,-99.99,,2013-04-21 13:32:00,
2013-04-21 09:42:00,65.0,-99.9,30.10,East,83,9.0,13.0,-999,-99.99,,,-99.99,,2013-04-21 13:42:00,
2013-04-21 09:52:00,66.0,-99.9,30.10,East,92,11.0,16.0,-999,-99.99,,,-99.99,,2013-04-21 13:52:00,
2013-04-21 10:02:00,67.0,-99.9,30.10,East,95,10.0,16.0,-999,-99.99,,,-99.99,,2013-04-21 14:02:00,
2013-04-21 10:11:00,67.0,-99.9,30.10,East,91,11.0,19.0,-999,-99.99,,,-99.99,,2013-04-21 14:11:00,
2013-04-21 10:22:00,68.0,-99.9,30.11,ESE,104,8.0,13.0,-999,-99.99,,,-99.99,,2013-04-21 14:22:00,
2013-04-21 10:32:00,68.0,-99.9,30.11,ESE,107,13.0,17.0,-999,-99.99,,,-99.99,,2013-04-21 14:32:00,
2013-04-21 10:42:00,69.0,-99.9,30.11,ESE,103,13.0,17.0,-999,-99.99,,,-99.99,,2013-04-21 14:42:00,
2013-04-21 10:52:00,70.0,-99.9,30.11,East,100,11.0,15.0,-999,-99.99,,,-99.99,,2013-04-21 14:52:00,
2013-04-21 11:02:00,70.0,-99.9,30.11,East,98,10.0,15.0,-999,-99.99,,,-99.99,,2013-04-21 15:02:00,
2013-04-21 11:12:00,71.0,-99.9,30.11,East,82,9.0,14.0,-999,-99.99,,,-99.99,,2013-04-21 15:12:00,
2013-04-21 11:22:00,72.0,-99.9,30.11,ESE,105,10.0,15.0,-999,-99.99,,,-99.99,,2013-04-21 15:22:00,
2013-04-21 11:33:00,73.0,-99.9,30.12,East,101,7.0,13.0,-999,-99.99,,,-99.99,,2013-04-21 15:33:00,
2013-04-21 11:43:00,73.0,-99.9,30.12,ESE,117,11.0,15.0,-999,-99.99,,,-99.99,,2013-04-21 15:43:00,
2013-04-21 11:53:00,74.0,-99.9,30.12,ESE,115,8.0,12.0,-999,-99.99,,,-99.99,,2013-04-21 15:53:00,
2013-04-21 12:03:00,74.0,-99.9,30.12,ESE,120,9.0,14.0,-999,-99.99,,,-99.99,,2013-04-21 16:03:00,
2013-04-21 12:13:00,74.0,-99.9,30.12,ESE,118,9.0,13.0,-999,-99.99,,,-99.99,,2013-04-21 16:13:00,
2013-04-21 12:23:00,75.0,-99.9,30.12,ESE,107,9.0,15.0,-999,-99.99,,,-99.99,,2013-04-21 16:23:00,
2013-04-21 12:33:00,74.0,-99.9,30.12,ESE,120,9.0,11.0,-999,-99.99,,,-99.99,,2013-04-21 16:33:00,
2013-04-21 12:42:00,75.0,-99.9,30.12,East,89,9.0,13.0,-999,-99.99,,,-99.99,,2013-04-21 16:42:00,
2013-04-21 12:53:00,75.0,-99.9,30.12,East,89,9.0,13.0,-999,-99.99,,,-99.99,,2013-04-21 16:53:00,
2013-04-21 13:02:00,76.0,-99.9,30.11,East,100,8.0,14.0,-999,-99.99,,,-99.99,,2013-04-21 17:02:00,
2013-04-21 13:12:00,76.0,-99.9,30.11,East,96,6.0,13.0,-999,-99.99,,,-99.99,,2013-04-21 17:12:00,
2013-04-21 13:23:00,76.0,-99.9,30.11,East,89,6.0,11.0,-999,-99.99,,,-99.99,,2013-04-21 17:23:00,
2013-04-21 13:32:00,76.0,-99.9,30.11,ESE,120,8.0,13.0,-999,-99.99,,,-99.99,,2013-04-21 17:32:00,
2013-04-21 13:42:00,76.0,-99.9,30.11,ESE,115,5.0,11.0,-999,-99.99,,,-99.99,,2013-04-21 17:42:00,
2013-04-21 13:52:00,76.0,-99.9,30.11,ESE,118,10.0,14.0,-999,-99.99,,,-99.99,,2013-04-21 17:52:00,
2013-04-21 14:02:00,77.0,-99.9,30.10,SE,137,8.0,12.0,-999,-99.99,,,-99.99,,2013-04-21 18:02:00,
2013-04-21 14:11:00,77.0,-99.9,30.10,ESE,119,10.0,14.0,-999,-99.99,,,-99.99,,2013-04-21 18:11:00,
2013-04-21 14:22:00,77.0,-99.9,30.09,ESE,120,10.0,13.0,-999,-99.99,,,-99.99,,2013-04-21 18:22:00,
2013-04-21 14:33:00,77.0,-99.9,30.09,East,79,9.0,13.0,-999,-99.99,,,-99.99,,2013-04-21 18:33:00,
2013-04-21 14:42:00,78.0,-99.9,30.09,ESE,105,7.0,14.0,-999,-99.99,,,-99.99,,2013-04-21 18:42:00,
2013-04-21 14:52:00,78.0,-99.9,30.08,East,86,8.0,11.0,-999,-99.99,,,-99.99,,2013-04-21 18:52:00,
2013-04-21 15:02:00,78.0,-99.9,30.08,SE,127,7.0,10.0,-999,-99.99,,,-99.99,,2013-04-21 19:02:00,
2013-04-21 15:12:00,78.0,-99.9,30.08,East,101,8.0,12.0,-999,-99.99,,,-99.99,,2013-04-21 19:12:00,
2013-04-21 15:22:00,78.0,-99.9,30.08,SE,124,5.0,7.0,-999,-99.99,,,-99.99,,2013-04-21 19:22:00,
2013-04-21 15:32:00,78.0,-99.9,30.07,ESE,111,5.0,8.0,-999,-99.99,,,-99.99,,2013-04-21 19:32:00,
2013-04-21 15:43:00,78.0,-99.9,30.06,East,80,8.0,11.0,-999,-99.99,,,-99.99,,2013-04-21 19:43:00,
2013-04-21 15:52:00,76.0,-99.9,30.06,West,273,5.0,8.0,-999,-99.99,,,-99.99,,2013-04-21 19:52:00,
2013-04-21 16:02:00,74.0,-99.9,30.05,NNW,336,8.0,11.0,-999,-99.99,,,-99.99,,2013-04-21 20:02:00,
2013-04-21 16:11:00,74.0,-99.9,30.05,NNW,345,7.0,8.0,-999,-99.99,,,-99.99,,2013-04-21 20:11:00,
2013-04-21 16:22:00,74.0,-99.9,30.04,NNW,336,8.0,9.0,-999,-99.99,,,-99.99,,2013-04-21 20:22:00,
2013-04-21 16:32:00,73.0,-99.9,30.04,NW,313,10.0,12.0,-999,-99.99,,,-99.99,,2013-04-21 20:32:00,
2013-04-21 16:42:00,73.0,-99.9,30.05,WNW,289,9.0,10.0,-999,-99.99,,,-99.99,,2013-04-21 20:42:00,
2013-04-21 16:52:00,73.0,-99.9,30.06,WNW,296,6.0,11.0,-999,-99.99,,,-99.99,,2013-04-21 20:52:00,
2013-04-21 17:02:00,73.0,-99.9,30.05,West,280,10.0,12.0,-999,-99.99,,,-99.99,,2013-04-21 21:02:00,
2013-04-21 17:12:00,73.0,-99.9,30.06,WNW,285,12.0,15.0,-999,-99.99,,,-99.99,,2013-04-21 21:12:00,
2013-04-21 17:22:00,73.0,-99.9,30.06,NW,307,12.0,15.0,-999,-99.99,,,-99.99,,2013-04-21 21:22:00,
2013-04-21 17:33:00,72.0,-99.9,30.05,NW,306,17.0,19.0,-999,-99.99,,,-99.99,,2013-04-21 21:33:00,
2013-04-21 17:43:00,72.0,-99.9,30.04,NW,310,18.0,20.0,-999,-99.99,,,-99.99,,2013-04-21 21:43:00,
2013-04-21 17:53:00,72.0,-99.9,30.05,NW,316,13.0,21.0,-999,-99.99,,,-99.99,,2013-04-21 21:53:00,
2013-04-21 18:03:00,72.0,-99.9,30.04,NW,322,12.0,18.0,-999,-99.99,,,-99.99,,2013-04-21 22:03:00,
2013-04-21 18:12:00,72.0,-99.9,30.04,NW,326,17.0,20.0,-999,-99.99,,,-99.99,,2013-04-21 22:12:00,
2013-04-21 18:22:00,72.0,-99.9,30.05,NNW,340,18.0,21.0,-999,-99.99,,,-99.99,,2013-04-21 22:22:00,
2013-04-21 18:33:00,72.0,-99.9,30.04,NNW,343,19.0,20.0,-999,-99.99,,,-99.99,,2013-04-21 22:33:00,
2013-04-21 18:43:00,72.0,-99.9,30.05,North,350,17.0,20.0,-999,-99.99,,,-99.99,,2013-04-21 22:43:00,
2013-04-21 18:53:00,72.0,-99.9,30.05,North,356,17.0,18.0,-999,-99.99,,,-99.99,,2013-04-21 22:53:00,
2013-04-21 19:02:00,72.0,-99.9,30.06,North,356,17.0,19.0,-999,-99.99,,,-99.99,,2013-04-21 23:02:00,
2013-04-21 19:12:00,72.0,-99.9,30.06,North,359,18.0,20.0,-999,-99.99,,,-99.99,,2013-04-21 23:12:00,
2013-04-21 19:22:00,72.0,-99.9,30.06,North,359,20.0,22.0,-999,-99.99,,,-99.99,,2013-04-21 23:22:00,
2013-04-21 19:32:00,71.0,-99.9,30.07,North,357,19.0,22.0,-999,-99.99,,,-99.99,,2013-04-21 23:32:00,
2013-04-21 19:43:00,72.0,-99.9,30.08,North,357,19.0,22.0,-999,-99.99,,,-99.99,,2013-04-21 23:43:00,
2013-04-21 19:52:00,72.0,-99.9,30.08,North,11,15.0,19.0,-999,-99.99,,,-99.99,,2013-04-21 23:52:00,
2013-04-21 20:02:00,72.0,-99.9,30.08,NNE,23,11.0,14.0,-999,-99.99,,,-99.99,,2013-04-22 00:02:00,
2013-04-21 20:12:00,72.0,-99.9,30.09,NNE,29,12.0,14.0,-999,-99.99,,,-99.99,,2013-04-22 00:12:00,
2013-04-21 20:22:00,72.0,-99.9,30.08,NNE,25,14.0,16.0,-999,-99.99,,,-99.99,,2013-04-22 00:22:00,
2013-04-21 20:32:00,71.0,-99.9,30.08,NNE,32,15.0,17.0,-999,-99.99,,,-99.99,,2013-04-22 00:32:00,
2013-04-21 20:42:00,71.0,-99.9,30.07,NNE,28,17.0,18.0,-999,-99.99,,,-99.99,,2013-04-22 00:42:00,
2013-04-21 20:52:00,71.0,-99.9,30.07,NNE,33,16.0,18.0,-999,-99.99,,,-99.99,,2013-04-22 00:52:00,
2013-04-21 21:01:00,71.0,-99.9,30.06,NE,50,14.0,18.0,-999,-99.99,,,-99.99,,2013-04-22 01:01:00,
2013-04-21 21:12:00,71.0,-99.9,30.06,NE,47,13.0,18.0,-999,-99.99,,,-99.99,,2013-04-22 01:12:00,
2013-04-21 21:22:00,71.0,-99.9,30.06,NE,52,14.0,17.0,-999,-99.99,,,-99.99,,2013-04-22 01:22:00,
2013-04-21 21:32:00,71.0,-99.9,30.06,NE,47,13.0,17.0,-999,-99.99,,,-99.99,,2013-04-22 01:32:00,
2013-04-21 21:42:00,71.0,-99.9,30.06,ENE,61,12.0,17.0,-999,-99.99,,,-99.99,,2013-04-22 01:42:00,
2013-04-21 21:52:00,71.0,-99.9,30.07,ENE,61,12.0,16.0,-999,-99.99,,,-99.99,,2013-04-22 01:52:00,
2013-04-21 22:02:00,71.0,-99.9,30.08,ENE,64,9.0,14.0,-999,-99.99,,,-99.99,,2013-04-22 02:02:00,
2013-04-21 22:12:00,71.0,-99.9,30.08,ENE,70,8.0,12.0,-999,-99.99,,,-99.99,,2013-04-22 02:12:00,
2013-04-21 22:22:00,71.0,-99.9,30.09,NE,56,9.0,13.0,-999,-99.99,,,-99.99,,2013-04-22 02:22:00,
2013-04-21 22:32:00,70.0,-99.9,30.09,ENE,58,6.0,13.0,-999,-99.99,,,-99.99,,2013-04-22 02:32:00,
2013-04-21 22:42:00,70.0,-99.9,30.10,ENE,70,6.0,10.0,-999,-99.99,,,-99.99,,2013-04-22 02:42:00,
2013-04-21 22:52:00,70.0,-99.9,30.10,ENE,67,6.0,9.0,-999,-99.99,,,-99.99,,2013-04-22 02:52:00,
2013-04-21 23:02:00,70.0,-99.9,30.10,ENE,61,8.0,15.0,-999,-99.99,,,-99.99,,2013-04-22 03:02:00,
2013-04-21 23:11:00,70.0,-99.9,30.10,ENE,63,10.0,14.0,-999,-99.99,,,-99.99,,2013-04-22 03:11:00,
2013-04-21 23:22:00,70.0,-99.9,30.09,ENE,60,9.0,12.0,-999,-99.99,,,-99.99,,2013-04-22 03:22:00,
2013-04-21 23:33:00,69.0,-99.9,30.09,ENE,59,10.0,12.0,-999,-99.99,,,-99.99,,2013-04-22 03:33:00,
2013-04-21 23:43:00,69.0,-99.9,30.09,ENE,64,9.0,12.0,-999,-99.99,,,-99.99,,2013-04-22 03:43:00,
2013-04-21 23:53:00,69.0,-99.9,30.09,East,86,9.0,11.0,-999,-99.99,,,-99.99,,2013-04-22 03:53:00,